[[{"header":{"parameterUnit":"m.s-1","parameterCategory":1,"la1":30.2991,"la2":30.254,"lo1":-89.0895,"lo2":-89.0444,"dy":0.0017,"dx":0.0017,"nx":28,"ny":28,"refTime":"2025-06-04T21:00:00:Z","depth":0,"parameterNumber":2,"parameterNumberName":"U-component_of_WINDS"},"data":[0,0,0,0,0,0,0,0,0,0,0,0,0,0,0,0,0,0,0,0,0,0,0,0,0,0,0,0,0,0,0,0,0,0,0,0,0,0,0,0,0,0,0,0,0,0,0,0,0,0,0,0,0,0,0,0,0,0,1.9799,1.9799,0,1.9776,1.9776,1.9776,1.9693,1.9691,1.9689,1.9687,1.9667,1.9668,1.967,0,0,0,0,0,0,0,0,0,0,0,0,0,1.9771,1.9772,1.9799,1.9799,1.9798,1.9776,1.9776,1.9775,1.9693,1.9691,1.9689,1.9686,1.9667,1.9668,1.967,0,0,0,0,0,0,0,0,0,0,0,0,0,1.9769,1.9772,1.9799,1.9754,1.975,1.9776,1.9776,1.9775,1.9694,1.9691,1.9688,1.9685,1.9666,1.9668,1.967,1.9738,0,0,1.9675,1.9676,0,0,0,0,0,0,0,0,1.977,1.9771,1.9761,1.9757,1.9753,1.9734,1.9759,1.9763,1.9694,1.9715,1.9687,1.9684,1.9692,1.9692,1.9694,1.9737,1.9736,1.9676,1.9677,1.9678,1.9678,0,0,0,0,0,0,0,1.977,1.9771,1.979,1.9761,1.9756,1.9736,1.9732,1.9759,1.972,1.9713,1.9707,1.9705,1.9689,1.9692,1.9693,1.9736,1.9676,1.9677,1.9678,1.9679,1.983,1.9832,0,0,0,0,0,0,1.9776,1.9772,1.9791,1.9789,1.9754,1.9738,1.9735,1.9743,1.9719,1.9713,1.9708,1.9702,1.969,1.969,1.9692,1.9766,1.9678,1.9679,1.968,1.9827,1.983,1.9833,0,0,0,0,0,0,1.9776,1.9779,1.9791,1.9779,1.9779,1.9742,1.9752,1.9744,1.9747,1.9715,1.9708,1.9718,1.9688,1.9689,1.9726,1.9765,1.968,1.9682,1.9823,1.9828,1.9832,1.9919,0,0,0,0,0,0,1.9775,1.9779,1.9805,1.978,1.978,1.9826,1.9755,1.9746,1.975,1.9742,1.9723,1.9717,1.9686,1.9723,1.9728,1.9766,1.9683,1.982,1.9825,1.983,1.9912,1.9926,1.9937,0,0,0,0,0,1.9775,1.9832,1.9806,1.9809,1.9811,1.9829,1.9829,1.9791,1.9754,1.9778,1.9757,1.9718,1.976,1.9728,1.9732,1.9771,1.9817,1.9824,1.983,1.9907,1.9923,1.9937,0,0,0,0,0,0,1.9864,1.9828,1.9799,1.985,1.9843,1.9815,1.9845,1.981,1.9814,1.9807,1.976,1.9757,1.98,1.9789,1.9754,1.9834,1.9781,1.9789,1.9839,1.9854,1.9866,1.9867,1.9685,0,0,0,0,0,1.9889,1.9906,1.9874,1.9922,1.9919,1.9883,1.989,1.9861,1.9852,1.9849,1.9831,1.9825,1.9836,1.9845,1.9854,1.9911,1.9904,1.9939,1.9952,1.9962,1.9969,1.9995,2.0009,1.9855,1.9855,1.9854,0,0,1.9943,1.9925,1.9939,1.9939,1.993,1.9948,1.9881,1.9905,1.9917,1.9853,1.9885,1.9872,1.9861,1.9908,1.9927,1.99,2.001,1.997,1.9979,1.998,2.0003,2.0017,2.003,1.9859,1.9858,1.9858,0,0,2.0048,2.0037,2.0074,2.0065,2.0051,2.0026,2.0035,2.0012,2.0,2.0031,1.9982,1.9997,2.0019,2.0012,2.0011,2.011,2.0073,2.0115,2.0179,2.0205,2.0217,2.0227,2.026,2.0272,2.0122,2.0122,2.0122,0,2.0116,2.014,2.0098,2.0122,2.0123,2.0063,2.0099,2.0094,2.0085,2.0086,2.0056,2.0079,2.0068,2.011,2.0134,2.0136,2.0144,2.0116,2.0218,2.0229,2.0238,2.0268,2.0281,2.0127,2.0127,2.0126,2.0126,0,2.0223,2.024,2.0272,2.0261,2.0266,2.0296,2.0257,2.0267,2.0237,2.0215,2.0247,2.0231,2.0234,2.0242,2.0215,2.028,2.0263,2.0227,2.0173,2.0258,2.0286,2.0297,2.0134,2.0133,2.0131,2.013,0,0,2.0385,2.0347,2.036,2.0352,2.0332,2.0344,2.0372,2.0373,2.038,2.0376,2.0396,2.0414,2.0379,2.0378,2.0349,2.0372,2.0447,2.0332,2.0331,2.0352,2.0514,2.054,2.0554,2.0423,2.0425,2.0426,2.0514,0,2.0482,2.0524,2.0485,2.0535,2.0549,2.0492,2.0515,2.0504,2.0484,2.0493,2.0471,2.0483,2.0438,2.0436,2.0456,2.0434,2.0479,2.0427,2.044,2.0441,2.0442,2.0569,2.0597,2.0681,2.0525,2.0527,2.0528,0,2.0602,2.0599,2.065,2.0622,2.0627,2.0648,2.0644,2.0654,2.064,2.0623,2.0621,2.0584,2.0608,2.0556,2.0587,2.0553,2.0555,2.0545,2.0547,2.0545,2.0488,2.0568,2.0707,2.0719,2.0545,2.0544,2.0543,0,2.071,2.072,2.0751,2.0747,2.0717,2.0732,2.072,2.0703,2.0705,2.0702,2.0703,2.0704,2.0704,2.0705,2.0669,2.0635,2.0703,2.0649,2.0688,2.0689,2.0704,2.0703,2.0843,2.071,2.071,2.071,2.0709,0,2.0822,2.0855,2.0799,2.0817,2.0851,2.0806,2.0841,2.0823,2.0808,2.0822,2.0774,2.0788,2.074,2.0749,2.0721,2.0749,2.075,2.0737,2.0728,2.074,2.0741,2.0739,2.0732,2.0713,2.0712,2.0712,2.0711,0,2.0949,2.0913,2.0942,2.0909,2.0902,2.0928,2.09,2.0916,2.0891,2.0909,2.0911,2.0873,2.088,2.0844,2.0847,2.0827,2.0868,2.0852,2.0872,2.0866,2.0906,2.0902,2.1048,2.1063,2.0924,2.0925,2.0926,0,2.1022,2.1045,2.1014,2.1018,2.1008,2.1017,2.1018,2.0974,2.0976,2.096,2.0977,2.098,2.098,2.0995,2.0967,2.0968,2.0949,2.1,2.0949,2.0958,2.0946,2.0944,2.0945,2.101,2.1012,2.1014,2.1015,0,2.1153,2.1133,2.1135,2.1131,2.1132,2.1127,2.1119,2.1126,2.1078,2.1083,2.1089,2.1089,2.1089,2.1091,2.1086,2.1073,2.1036,2.1031,2.1039,2.105,2.106,2.1052,2.0899,2.1028,2.1026,2.1025,2.1025,2.1024,2.1253,2.1269,2.1248,2.1252,2.124,2.1232,2.1244,2.122,2.1223,2.1219,2.1193,2.1203,2.1186,2.1174,2.1165,2.1171,2.1147,2.1161,2.1163,2.1167,2.1172,2.106,2.1171,2.117,2.117,2.117,2.1169,0,2.1378,2.1361,2.1365,2.1353,2.1355,2.1318,2.1306,2.131,2.1319,2.1306,2.1306,2.1311,2.1313,2.1285,2.1282,2.1293,2.1275,2.1294,2.1291,2.1289,2.1196,2.1187,2.1308,2.1308,2.1308,2.1308,2.1308,2.1308,2.1444,2.1468,2.1446,2.1463,2.1446,2.1454,2.145,2.1442,2.143,2.1438,2.1438,2.1419,2.1399,2.1395,2.1394,2.1386,2.1386,2.141,2.1396,2.1309,2.1296,2.1283,2.1274,2.1411,2.1411,2.1487,2.1488,2.1489]},{"header":{"parameterUnit":"m.s-1","parameterCategory":1,"la1":30.2991,"la2":30.254,"lo1":-89.0895,"lo2":-89.0444,"dy":0.0017,"dx":0.0017,"nx":28,"ny":28,"refTime":"2025-06-04T21:00:00:Z","depth":0,"parameterNumber":3,"parameterNumberName":"V-component_of_WINDS"},"data":[0,0,0,0,0,0,0,0,0,0,0,0,0,0,0,0,0,0,0,0,0,0,0,0,0,0,0,0,0,0,0,0,0,0,0,0,0,0,0,0,0,0,0,0,0,0,0,0,0,0,0,0,0,0,0,0,0,0,3.8982,3.8983,0,3.9036,3.9037,3.9038,3.9018,3.9016,3.9015,3.9014,3.9063,3.9065,3.9067,0,0,0,0,0,0,0,0,0,0,0,0,0,3.8855,3.8857,3.8982,3.8983,3.8984,3.9036,3.9037,3.9038,3.9018,3.9016,3.9015,3.9014,3.9062,3.9065,3.9068,0,0,0,0,0,0,0,0,0,0,0,0,0,3.8909,3.8858,3.8982,3.898,3.8981,3.9036,3.9037,3.9038,3.9018,3.9016,3.9015,3.9013,3.9061,3.9064,3.9068,3.9126,0,0,3.9079,3.9081,0,0,0,0,0,0,0,0,3.8906,3.8914,3.898,3.8981,3.8981,3.9019,3.901,3.9067,3.9019,3.9004,3.9014,3.9012,3.9049,3.9053,3.9067,3.9129,3.9131,3.9079,3.9081,3.9083,3.9084,0,0,0,0,0,0,0,3.8902,3.8912,3.9003,3.8981,3.8982,3.8974,3.898,3.902,3.9035,3.9005,3.9004,3.9011,3.9049,3.9064,3.9068,3.9131,3.9079,3.9082,3.9085,3.9086,3.9241,3.9243,0,0,0,0,0,0,3.8899,3.8909,3.9002,3.9005,3.8939,3.8978,3.8985,3.9008,3.9035,3.9038,3.9012,3.9009,3.9059,3.9064,3.907,3.9139,3.9083,3.9086,3.9088,3.9239,3.9241,3.9244,0,0,0,0,0,0,3.8897,3.8908,3.9,3.8957,3.8968,3.8982,3.9009,3.901,3.9025,3.9041,3.9042,3.9025,3.9057,3.9065,3.9112,3.914,3.9088,3.9091,3.9237,3.924,3.9242,3.9278,0,0,0,0,0,0,3.8893,3.8907,3.8931,3.8957,3.897,3.9044,3.9011,3.9013,3.9032,3.9029,3.9053,3.9056,3.9056,3.9107,3.9116,3.9144,3.9094,3.9234,3.9238,3.9242,3.9274,3.9282,3.9288,0,0,0,0,0,3.8889,3.8938,3.8933,3.8944,3.9001,3.9045,3.9052,3.9054,3.9035,3.9058,3.9067,3.9055,3.9136,3.9112,3.9122,3.9152,3.9233,3.9237,3.9241,3.9271,3.928,3.9288,0,0,0,0,0,0,3.8913,3.8942,3.8936,3.8996,3.9019,3.9042,3.9071,3.9064,3.9091,3.9087,3.9086,3.9092,3.9141,3.9151,3.9124,3.9209,3.9181,3.9187,3.92,3.9209,3.9216,3.9212,3.9097,0,0,0,0,0,3.8926,3.8962,3.8984,3.9034,3.9046,3.9057,3.9076,3.9076,3.9098,3.9107,3.912,3.9141,3.9171,3.9191,3.9219,3.9276,3.9279,3.9301,3.9308,3.9313,3.9319,3.9348,3.9357,3.9258,3.9258,3.9258,0,0,3.8951,3.8971,3.8994,3.904,3.9057,3.9092,3.9065,3.9103,3.9128,3.9112,3.9159,3.9169,3.9191,3.9244,3.9267,3.9254,3.9347,3.9319,3.9323,3.9325,3.9353,3.9362,3.9371,3.9261,3.926,3.926,0,0,3.9016,3.9036,3.908,3.9098,3.9126,3.9133,3.9143,3.9168,3.9174,3.9221,3.921,3.9238,3.929,3.9306,3.9321,3.9391,3.938,3.94,3.9436,3.9464,3.9472,3.9479,3.9502,3.9511,3.9406,3.9406,3.9406,0,3.9044,3.9099,3.9102,3.9142,3.9161,3.915,3.9193,3.921,3.9244,3.9257,3.9242,3.9306,3.9321,3.9376,3.9393,3.9406,3.9416,3.9397,3.9471,3.9478,3.9484,3.9506,3.9515,3.9408,3.9408,3.9408,3.9407,0,3.913,3.9168,3.92,3.9236,3.9258,3.9299,3.9306,3.9329,3.9326,3.9333,3.938,3.9397,3.9428,3.9441,3.9438,3.9495,3.9486,3.9471,3.9443,3.9496,3.9517,3.9525,3.9411,3.941,3.941,3.9409,0,0,3.9212,3.925,3.9261,3.9276,3.9306,3.9334,3.9373,3.9405,3.9423,3.9447,3.9478,3.9522,3.9509,3.9526,3.9524,3.9549,3.9602,3.9531,3.9531,3.9542,3.9664,3.9674,3.9684,3.9595,3.9596,3.9598,3.9661,0,3.9278,3.9349,3.9353,3.9417,3.945,3.944,3.9474,3.9494,3.9502,3.9529,3.9536,3.9568,3.9548,3.9558,3.9582,3.959,3.9626,3.9586,3.9621,3.9623,3.9615,3.9695,3.9707,3.9766,3.967,3.9671,3.9672,0,3.9365,3.9393,3.9461,3.9485,3.9499,3.9529,3.9558,3.9586,3.9607,3.9611,3.963,3.9625,3.9662,3.9634,3.9684,3.9657,3.9671,3.9677,3.9679,3.9682,3.965,3.9699,3.9785,3.9793,3.9685,3.9684,3.9683,0,3.9416,3.9471,3.9518,3.9532,3.9561,3.9582,3.9595,3.9615,3.9634,3.9659,3.967,3.9699,3.9714,3.9735,3.9736,3.9716,3.9786,3.9758,3.9788,3.9788,3.9803,3.9802,3.9891,3.9814,3.9814,3.9814,3.9814,0,3.9489,3.953,3.9541,3.957,3.9615,3.9618,3.9662,3.9672,3.969,3.9719,3.9711,3.9738,3.9739,3.9766,3.9767,3.9807,3.9814,3.9817,3.9816,3.9817,3.9817,3.9826,3.9821,3.9816,3.9816,3.9815,3.9815,0,3.9553,3.9563,3.9613,3.9637,3.9644,3.9676,3.9695,3.9721,3.9728,3.9764,3.9773,3.9783,3.9814,3.9818,3.9854,3.9854,3.9903,3.9898,3.9896,3.9895,3.9924,3.9921,4.0022,4.0035,3.9951,3.9951,3.9952,0,3.9598,3.963,3.9657,3.9677,3.9692,3.9724,3.9743,3.9746,3.9767,3.9793,3.9816,3.9846,3.9871,3.992,3.993,3.9956,3.9952,3.9986,3.9956,3.9955,3.9951,3.9949,3.9951,3.9991,3.9992,3.9993,3.9993,0,3.9677,3.968,3.971,3.9742,3.9766,3.979,3.9812,3.9828,3.9834,3.9857,3.9889,3.9909,3.9946,3.9975,4.0002,4.0012,4.0003,4.0003,4.0011,4.0011,4.0008,4.0009,3.991,4.0,3.9999,3.9999,3.9999,3.9998,3.9732,3.976,3.9783,3.9816,3.9834,3.9855,3.9881,3.9892,3.992,3.9951,3.9951,3.9986,4.0005,4.004,4.0053,4.0079,4.0067,4.0079,4.0082,4.0085,4.0087,4.0005,4.0083,4.0083,4.0083,4.0083,4.0083,0,3.981,3.9825,3.9855,3.9888,3.9913,3.9905,3.9929,3.995,3.9982,4.0002,4.0026,4.0063,4.0091,4.0103,4.013,4.0149,4.0145,4.0156,4.0154,4.0156,4.0096,4.0086,4.0158,4.0158,4.0158,4.0158,4.0158,4.0158,3.9853,3.9898,3.9904,3.9957,3.9971,4.0007,4.0021,4.004,4.0056,4.0098,4.0122,4.013,4.0146,4.0174,4.0199,4.0202,4.0212,4.0224,4.0224,4.0168,4.016,4.0153,4.0143,4.0226,4.0226,4.0282,4.0282,4.0282]}]]